{"data":{"norad_id":63577,"epoch":"2026-05-24T18:38:37.152960Z","epoch_age_seconds":91376,"freshness":"FRESH","line1":"1 63577U 25076J   26144.77681890  .00021874  00000+0  80177-3 0  9998","line2":"2 63577  42.9996 252.2835 0001443 276.1592  83.9096 15.27591575 63461","mean_motion":15.27591575,"eccentricity":0.0001443,"inclination_deg":42.9996,"raan_deg":252.2835,"arg_perigee_deg":276.1592,"mean_anomaly_deg":83.9096,"bstar":0.00080177,"rev_number":6346,"period_min":94.266034427429,"perigee_km":482.02437239213,"apogee_km":484.00450069672,"semimajor_km":6861.1514365444,"source":"CELESTRAK","updated_at":"2026-05-25T13:38:20.047048Z"}}